Zurück zum Katalog

STARLINK-31919

AktivKommunikationVLEO
NORAD 59880·PAYLOAD·🇺🇸 United States

Gestartet May 24, 2024 von Cape Canaveral Space Force Station

Loading…

Nächste Überflüge (nächste 24 Stunden)

TLE

AktuellSource: CelesTrak SupGP

Epoche: Sep 14, 2026, 22:20 UTC

1 59880C 24098Y   26257.93104167  .00016338  00000+0  59193-3 0  2573
2 59880  43.0000 289.3012 0001437 257.7552 247.9321 15.27561127    18

Verfolge STARLINK-31919 in Echtzeit mit AllMySat

Download on the App Store